This demonstration page uses our WeatherBlox Daily Observations layout. Learn more.

Left ArrowRight Arrow

39.08367, -84.50855

Hourly Observations for December 10, 2017

Temp ( °F °C ) Dew Point ( °F °C ) Humidity (%) Winds ( mph kmh ) Pressure ( in mb ) Visibility ( mi km ) Precip ( " mm )
12:53 am 00:53 Cloudy 30 -1.1 21 -6.1 69 69 WNW 12 19 30.11 1020 10 16 N/A
1:53 am 01:53 Cloudy 30 -1.1 21 -6.1 69 69 W 12 19 30.13 1020 10 16 N/A
2:53 am 02:53 Cloudy 29 -1.7 20 -6.7 69 69 W 10 17 30.14 1021 10 16 N/A
3:53 am 03:53 Cloudy 28 -2.2 19 -7.2 69 69 W 8 13 30.15 1021 10 16 N/A
4:53 am 04:53 Cloudy 26 -3.3 19 -7.2 75 75 SSW 8 13 30.15 1021 10 16 N/A
5:05 am 05:05 Mostly Cloudy 25 -3.9 18 -7.8 75 75 SW 9 15 30.18 1022 10 16 N/A
5:53 am 05:53 Clear 23 -5 16 -8.9 74 74 SW 8 13 30.16 1021 10 16 N/A
6:53 am 06:53 Clear 22 -5.6 16 -8.9 78 78 SW 8 13 30.18 1022 10 16 N/A
7:53 am 07:53 Sunny 21 -6.1 16 -8.9 81 81 SSW 8 13 30.19 1022 10 16 N/A
8:53 am 08:53 Sunny 25 -3.9 18 -7.8 75 75 SSW 9 15 30.18 1022 10 16 N/A
9:53 am 09:53 Cloudy 27 -2.8 18 -7.8 69 69 SSW 9 15 30.19 1022 10 16 N/A
10:53 am 10:53 Cloudy 29 -1.7 18 -7.8 63 63 SSW 12 19 30.18 1022 10 16 N/A
11:53 am 11:53 Cloudy 32 undefined 19 -7.2 59 59 SSW 18 30 30.14 1021 10 16 N/A
12:53 pm 12:53 Cloudy 34 1.1 20 -6.7 56 56 SW 13 20 30.10 1019 10 16 N/A
1:53 pm 13:53 Cloudy 34 1.1 20 -6.7 56 56 SSW 14 22 30.06 1018 10 16 N/A
2:53 pm 14:53 Cloudy 35 1.7 20 -6.7 54 54 SSW 18 30 30.02 1017 10 16 N/A
3:53 pm 15:53 Cloudy 37 2.8 20 -6.7 50 50 SSW 15 24 30.01 1016 10 16 N/A
4:53 pm 16:53 Sunny 35 1.7 19 -7.2 52 52 SSW 12 19 30.01 1016 10 16 N/A
5:53 pm 17:53 Clear 31 -0.6 19 -7.2 61 61 SSW 8 13 30.05 1018 10 16 N/A
6:53 pm 18:53 Clear 33 0.6 19 -7.2 56 56 SW 3 6 30.07 1018 10 16 N/A
7:53 pm 19:53 Clear 31 -0.6 21 -6.1 67 67 N N/A 30.07 1018 10 16 N/A
8:53 pm 20:53 Clear 30 -1.1 21 -6.1 69 69 SSW 7 11 30.07 1018 10 16 N/A
9:53 pm 21:53 Clear 26 -3.3 21 -6.1 81 81 N N/A 30.08 1019 10 16 N/A
10:53 pm 22:53 Clear 31 -0.6 21 -6.1 67 67 N N/A 30.09 1019 10 16 N/A
11:53 pm 23:53 Clear 33 0.6 22 -5.6 64 64 N N/A 30.10 1019 10 16 N/A

Powered by AerisWeather